User: anonymous   Login
Location: Eberbach
(49.4690°N, 8.9930°E)
Time: 06:11:00
(UTC+02:00)
Language:

ISS - Orbit

View from above orbital plane
View from above orbital plane
View from above satellite
View from above satellite

Ground track
Ground track

The orbit data is extracted from the following two-line orbital elements,

1 25544U 98067A   21301.00322917  .00003431  00000-0  70877-4 0  9995
2 25544  51.6444  45.9958 0003883 145.6466 188.4099 15.48807975309173
Epoch (UTC): 28 October 2021 00:04:39
Eccentricity: 0.0003883
inclination: 51.6444°
perigee height: 417 km
apogee height: 423 km
right ascension of ascending node: 45.9958°
argument of perigee: 145.6466°
revolutions per day: 15.48807975
mean anomaly at epoch: 188.4099°
orbit number at epoch: 30917

The dashed part of the orbit path shows where the satellite is in the earth's shadow,  

DLR